Weather History for Warrensburg, MO

Change the Weather History Date:

Tuesday, October 9, 2012

  Actual Average (KSZL) Record (KSZL)
Temperature  
Mean Temperature 54 °F -  
Max Temperature 66 °F 68 °F 82 °F (2007)
Min Temperature 41 °F 48 °F 28 °F (2000)
Degree Days  
Heating Degree Days 12    
Growing Degree Days 4 (Base 50)    
Moisture  
Dew Point 41 °F    
Average Humidity 68    
Maximum Humidity 88    
Minimum Humidity 49    
Precipitation  
Precipitation 0.00 in - - ()
Sea Level Pressure  
Sea Level Pressure 29.97 in    
Wind  
Wind Speed 8 mph (SSW)    
Max Wind Speed 16 mph    
Max Gust Speed 22 mph    
Visibility 10 miles    
Events      
Averages and records for this station are not official NWS values.
T = Trace of Precipitation, MM = Missing Value Source: NWS Daily Summary

Daily Weather History Graph

Daily Weather History Graph

Search for Another Location

Airport:

Trip Planner

Search our weather history database for the weather conditions in past years. The results will help you decide how hot, cold, wet, or windy it might be!

Date:

Astronomy

Oct. 09, 2012 Rise Set
Actual Time 7:19 AM CDT 6:44 PM CDT
Civil Twilight 6:52 AM CDT 7:11 PM CDT
Nautical Twilight 6:21 AM CDT 7:42 PM CDT
Astronomical Twilight 5:50 AM CDT 8:13 PM CDT
Moon 12:59 AM CDT (10/9) 3:09 PM CDT (10/9)
Length of Visible Light 12h 19m
Length of Day
11h 25m
Last Quarter, 36% of the Moon is Illuminated
Oct 9
Last Quarter
Oct 15
New
Oct 21
First Quarter
Oct 29
Full
Nov 6
Last Quarter

Hourly Weather History & Observations

Time (CDT) Temp. Windchill Dew Point Humidity Pressure Visibility Wind Dir Wind Speed Gust Speed Precip Events Conditions
12:15 AM 46.4 °F 42.4 °F 35.6 °F 66% 30.00 in 10.0 mi South 8.1 mph - N/A   Clear
12:35 AM 46.4 °F 42.4 °F 35.6 °F 66% 29.99 in 10.0 mi South 8.1 mph - N/A   Clear
12:55 AM 46.4 °F 41.9 °F 35.6 °F 66% 29.99 in 10.0 mi South 9.2 mph - N/A   Clear
1:15 AM 44.6 °F 39.7 °F 35.6 °F 71% 29.98 in 10.0 mi South 9.2 mph - N/A   Clear
1:35 AM 44.6 °F 40.2 °F 35.6 °F 71% 29.99 in 10.0 mi South 8.1 mph - N/A   Clear
1:55 AM 44.6 °F 39.7 °F 35.6 °F 71% 29.98 in 10.0 mi South 9.2 mph - N/A   Clear
2:15 AM 44.6 °F 40.7 °F 35.6 °F 71% 29.98 in 10.0 mi South 6.9 mph - N/A   Clear
2:35 AM 44.6 °F 40.2 °F 35.6 °F 71% 29.97 in 10.0 mi SSE 8.1 mph - N/A   Clear
2:55 AM 44.6 °F 40.2 °F 35.6 °F 71% 29.97 in 10.0 mi South 8.1 mph - N/A   Clear
3:15 AM 44.6 °F 39.2 °F 35.6 °F 71% 29.97 in 10.0 mi South 10.4 mph - N/A   Clear
3:35 AM 44.6 °F 40.2 °F 35.6 °F 71% 29.96 in 10.0 mi South 8.1 mph - N/A   Clear
3:55 AM 42.8 °F 38.6 °F 35.6 °F 76% 29.96 in 10.0 mi South 6.9 mph - N/A   Clear
4:15 AM 42.8 °F 39.3 °F 35.6 °F 76% 29.96 in 10.0 mi South 5.8 mph - N/A   Clear
4:35 AM 42.8 °F 38.0 °F 35.6 °F 76% 29.96 in 10.0 mi South 8.1 mph - N/A   Clear
4:55 AM 42.8 °F 39.3 °F 35.6 °F 76% 29.96 in 10.0 mi SSE 5.8 mph - N/A   Clear
5:15 AM 41.0 °F 35.8 °F 35.6 °F 81% 29.96 in 10.0 mi SSE 8.1 mph - N/A   Clear
5:35 AM 41.0 °F 36.4 °F 35.6 °F 81% 29.96 in 10.0 mi SSE 6.9 mph - N/A   Clear
5:55 AM 41.0 °F 37.1 °F 35.6 °F 81% 29.96 in 10.0 mi South 5.8 mph - N/A   Clear
6:15 AM 41.0 °F 38.0 °F 35.6 °F 81% 29.96 in 10.0 mi SSE 4.6 mph - N/A   Clear
6:35 AM 41.0 °F 36.4 °F 35.6 °F 81% 29.96 in 10.0 mi SSE 6.9 mph - N/A   Clear
6:55 AM 41.0 °F 37.1 °F 37.4 °F 87% 29.96 in 10.0 mi SSE 5.8 mph - N/A   Clear
7:15 AM 41.0 °F 36.4 °F 37.4 °F 87% 29.96 in 10.0 mi South 6.9 mph - N/A   Clear
7:55 AM 42.8 °F 37.5 °F 37.4 °F 81% 29.95 in 10.0 mi South 9.2 mph - N/A   Clear
8:15 AM 44.6 °F 38.8 °F 37.4 °F 76% 29.95 in 10.0 mi South 11.5 mph 16.1 mph N/A   Clear
8:35 AM 46.4 °F 40.7 °F 39.2 °F 76% 29.95 in 10.0 mi South 12.7 mph - N/A   Clear
8:55 AM 46.4 °F 41.9 °F 39.2 °F 76% 29.95 in 10.0 mi South 9.2 mph - N/A   Clear
9:15 AM 50.0 °F - 41.0 °F 71% 29.96 in 10.0 mi South 11.5 mph 19.6 mph N/A   Clear
9:35 AM 51.8 °F - 41.0 °F 67% 29.96 in 10.0 mi SSW 16.1 mph 20.7 mph N/A   Clear
9:55 AM 51.8 °F - 41.0 °F 67% 29.96 in 10.0 mi South 12.7 mph 20.7 mph N/A   Clear
10:15 AM 55.4 °F - 42.8 °F 63% 29.97 in 10.0 mi SSW 15.0 mph 19.6 mph N/A   Clear
10:35 AM 55.4 °F - 42.8 °F 63% 29.97 in 10.0 mi South 16.1 mph - N/A   Clear
10:55 AM 57.2 °F - 42.8 °F 59% 29.97 in 10.0 mi South 12.7 mph 18.4 mph N/A   Clear
11:15 AM 59.0 °F - 42.8 °F 55% 29.96 in 10.0 mi SSW 15.0 mph 21.9 mph N/A   Clear
11:35 AM 60.8 °F - 44.6 °F 55% 29.96 in 10.0 mi SSW 11.5 mph - N/A   Clear
11:55 AM 60.8 °F - 44.6 °F 55% 29.95 in 10.0 mi South 11.5 mph - N/A   Clear
12:15 PM 62.6 °F - 44.6 °F 52% 29.94 in 10.0 mi SSW 12.7 mph 17.3 mph N/A   Clear
12:35 PM 62.6 °F - 44.6 °F 52% 29.93 in 10.0 mi SSW 9.2 mph 16.1 mph N/A   Clear
12:55 PM 62.6 °F - 44.6 °F 52% 29.92 in 10.0 mi South 10.4 mph 16.1 mph N/A   Clear
1:15 PM 64.4 °F - 44.6 °F 49% 29.91 in 10.0 mi South 12.7 mph 17.3 mph N/A   Clear
1:35 PM 64.4 °F - 46.4 °F 52% 29.90 in 10.0 mi South 12.7 mph - N/A   Clear
1:55 PM 66.2 °F - 46.4 °F 49% 29.90 in 10.0 mi SSW 11.5 mph 17.3 mph N/A   Clear
2:15 PM 66.2 °F - 46.4 °F 49% 29.90 in 10.0 mi SW 9.2 mph 21.9 mph N/A   Scattered Clouds
2:35 PM 64.4 °F - 46.4 °F 52% 29.90 in 10.0 mi South 9.2 mph - N/A   Scattered Clouds
2:55 PM 64.4 °F - 46.4 °F 52% 29.89 in 10.0 mi SSW 6.9 mph - N/A   Mostly Cloudy
3:15 PM 64.4 °F - 46.4 °F 52% 29.90 in 10.0 mi SW 6.9 mph - N/A   Overcast
3:35 PM 62.6 °F - 46.4 °F 55% 29.90 in 10.0 mi SW 4.6 mph - N/A   Overcast
3:55 PM 62.6 °F - 48.2 °F 59% 29.90 in 10.0 mi WSW 3.5 mph - N/A   Overcast
4:15 PM 62.6 °F - 48.2 °F 59% 29.90 in 10.0 mi Calm Calm - N/A   Overcast
4:35 PM 62.6 °F - 48.2 °F 59% 29.90 in 10.0 mi West 3.5 mph - N/A   Overcast
4:55 PM 62.6 °F - 48.2 °F 59% 29.90 in 10.0 mi West 4.6 mph - N/A   Overcast
5:15 PM 62.6 °F - 48.2 °F 59% 29.91 in 10.0 mi West 4.6 mph - N/A   Overcast
5:35 PM 59.0 °F - 50.0 °F 72% 29.93 in 7.0 mi West 6.9 mph - N/A   Drizzle
5:55 PM 55.4 °F - 50.0 °F 82% 29.95 in 7.0 mi NW 6.9 mph 17.3 mph N/A   Drizzle
6:15 PM 53.6 °F - 50.0 °F 88% 29.96 in 10.0 mi Calm Calm - N/A   Light Drizzle
6:35 PM 55.4 °F - 50.0 °F 82% 29.96 in 10.0 mi NNW 4.6 mph - N/A   Light Drizzle
6:55 PM 53.6 °F - 50.0 °F 88% 29.97 in 10.0 mi WNW 3.5 mph - N/A   Overcast
7:15 PM 55.4 °F - 48.2 °F 77% 29.98 in 10.0 mi NW 8.1 mph - N/A   Overcast
7:35 PM 53.6 °F - 44.6 °F 72% 29.99 in 10.0 mi NNW 6.9 mph - N/A   Overcast
7:55 PM 53.6 °F - 44.6 °F 72% 30.00 in 10.0 mi NNW 6.9 mph - N/A   Overcast
8:15 PM 53.6 °F - 44.6 °F 72% 30.01 in 10.0 mi NNW 5.8 mph - N/A   Overcast
8:35 PM 53.6 °F - 42.8 °F 67% 30.02 in 10.0 mi NNW 9.2 mph - N/A   Overcast
8:55 PM 53.6 °F - 42.8 °F 67% 30.03 in 10.0 mi North 5.8 mph - N/A   Overcast
9:15 PM 53.6 °F - 42.8 °F 67% 30.05 in 10.0 mi North 9.2 mph - N/A   Overcast
9:35 PM 53.6 °F - 41.0 °F 62% 30.06 in 10.0 mi North 6.9 mph - N/A   Overcast
9:55 PM 51.8 °F - 41.0 °F 67% 30.07 in 10.0 mi NNW 4.6 mph - N/A   Mostly Cloudy
10:15 PM 50.0 °F - 41.0 °F 71% 30.08 in 10.0 mi NNW 8.1 mph - N/A   Scattered Clouds
10:35 PM 50.0 °F - 39.2 °F 66% 30.09 in 10.0 mi NNW 5.8 mph - N/A   Clear
10:55 PM 50.0 °F - 39.2 °F 66% 30.11 in 10.0 mi NW 8.1 mph - N/A   Clear
11:15 PM 48.2 °F - 35.6 °F 62% 30.11 in 10.0 mi NNW 5.8 mph - N/A   Clear
11:35 PM 46.4 °F - 35.6 °F 66% 30.12 in 10.0 mi Calm Calm - N/A   Clear
11:55 PM 44.6 °F - 33.8 °F 66% 30.12 in 10.0 mi Calm Calm - N/A   Clear